Regional Weather Roundup
Issued by NWS Sioux Falls, SD

Home | Current Version | Previous Version | Text Only | Print | Product List | Glossary On
Versions: 1 2 3 4 5 6 7 8 9 10 11 12 13 14 15 16 17 18 19 20 21 22 23 24 25 26 27 28 29 30 31 32 33 34 35 36 37 38 39 40 41 42 43 44 45 46 47 48 49 50
000
ASUS43 KFSD 251602
RWRFSD

WEATHER ROUNDUP FOR SE SOUTH DAKOTA/SW MINNESOTA/NW IOWA
NATIONAL WEATHER SERVICE SIOUX FALLS SD
1100 AM CDT THU MAY 25 2017

NOTE: "FAIR" INDICATES FEW OR NO CLOUDS BELOW 12,000 FEET WITH NO
SIGNIFICANT WEATHER AND OR OBSTRUCTIONS TO VISIBILITY.


SDZ038>040-050-052>070-251700-
SOUTHEAST SOUTH DAKOTA

CITY           SKY/WX    TMP DP  RH WIND       PRES   REMARKS
BROOKINGS      SUNNY     63  49  60 S22G37    29.52F
CHAMBERLAIN    NOT AVBL
HURON          SUNNY     66  48  52 S16G35    29.43F
MADISON        FAIR      63  48  59 S29G39    29.51F
MITCHELL       SUNNY     67  47  48 S23G36    29.46F
SIOUX FALLS    MOSUNNY   64  49  57 S22G43    29.55F
WINNER         FAIR      66  50  56 W13       29.45S
YANKTON        SUNNY     67  46  47 S20G31    29.53F
$$

MNZ071-072-080-081-089-090-097-098-251700-
SOUTHWEST MINNESOTA

CITY           SKY/WX    TMP DP  RH WIND       PRES   REMARKS
FAIRMONT       MOSUNNY   63  50  62 SE17G24   29.65F
JACKSON        SUNNY     61  46  59 S16G23    29.65F
MARSHALL       SUNNY     63  49  60 S26G33    29.58
PIPESTONE      SUNNY     63  46  55 S26G33    29.56F
REDWOOD FALLS  MOSUNNY   63  47  55 SE24G32   29.62F
TRACY          MOSUNNY   62  51  68 S20G28    29.60F
WINDOM         MOSUNNY   63  46  55 SE18G26   29.62F
WORTHINGTON    CLOUDY    61  49  64 S22G29    29.61F
$$

IAZ001>003-012>014-020>022-031-032-NEZ013-014-SDZ071-251700-
NORTHWEST IOWA

CITY           SKY/WX    TMP DP  RH WIND       PRES   REMARKS
CHEROKEE       PTSUNNY   64  49  58 S14G21    29.63F
DENISON        SUNNY     64  48  55 S17G25    29.66F
ESTHERVILLE    MOSUNNY   62  51  67 SE18      29.65F
LE MARS        SUNNY     66  48  52 S22G31    29.60F
ORANGE CITY    SUNNY     64  48  55 S22       29.60F
SHELDON        MOSUNNY   64  48  55 S24G33    29.59F
SIOUX CITY     SUNNY     65  53  65 S21       29.60F
SPENCER        MOSUNNY   62  47  57 SE21G29   29.63F
STORM LAKE       N/A     64  46  52 S18G24    29.66S
$$

ABBREVIATIONS USED IN REMARKS
   TC - TEMPERATURE IN CELSIUS
  WCI - WIND CHILL INDEX
   HX - HEAT INDEX
  VSB - VISIBILITY




USA.gov is the U.S. government's official web portal to all federal, state and local government web resources and services.